Home > Weather > Valladolid > Past weeks

Flag for Spain Past Weather in Valladolid, Spain — Yesterday and Last 2 Weeks

Now
70 °F

Mild.


Feels Like: 77 °F
Forecast: 60 / 93 °F
Wind: 2 mph from North

Location: Valladolid

Current Time: Jul 28, 2016 at 1:20:44 AM

Latest Report: Jul 28, 2016 at 12:00 AM


Visibility: 13 mi

Pressure: 30.07 "Hg (27.69 "Hg at 712m altitude)

Humidity: 48%

Dew Point: 50 °F

Location of ValladolidLocation

Past Weather in Valladolid — Graph

°F

Valladolid Temperature Yesterday

Maximum temperature yesterday: 90 °F (at 5:00 PM)
Minimum temperature yesterday: 60 °F (at 7:00 AM)
Average temperature yesterday: 74 °F

High & Low Weather Summary for the Past Weeks

 TemperatureHumidityPressure
High99 °F (Jul 18, 4:00 PM)87% (Jul 21, 7:00 AM)30.32 "Hg (Jul 21, 7:00 AM)
Low48 °F (Jul 15, 7:00 AM)12% (Jul 15, 6:00 PM)29.79 "Hg (Jul 18, 7:00 PM)
Average73 °F43%30.04 "Hg
* Reported Jul 13 12:00 AM — Jul 28 12:00 AM, Valladolid, Weather by CustomWeather, © 2016

Note: Actual official high and low records may vary slightly from our data, if they occured in-between our weather recording intervals... More about our weather records

Advertising

Valladolid Weather History for the Previous 24 Hours

Scroll right to see more
 ConditionsComfort  
Time TempWeatherWind HumidityBarometerVisibility
12:00 AM
Thu, Jul 28
70 °FMild.2 mph48%30.07 "Hg12 mi
11:00 PM
Wed, Jul 27
74 °FPassing clouds.2 mph42%30.04 "Hg19 mi
10:00 PM77 °FPleasantly warm.6 mph36%30.01 "Hg12 mi
9:00 PM81 °FPleasantly warm.3 mph33%29.97 "Hg12 mi
8:00 PM85 °FScattered clouds.6 mph29%29.94 "Hg19 mi
7:00 PM88 °FPleasantly warm.5 mph27%29.92 "Hg12 mi
6:00 PM89 °FHot.6 mph26%29.92 "Hg12 mi
5:00 PM90 °FScattered clouds.6 mph25%29.93 "Hg19 mi
4:00 PM89 °FHot.5 mph27%29.94 "Hg12 mi
3:00 PM86 °FPleasantly warm.6 mph30%29.96 "Hg12 mi
2:00 PM84 °FScattered clouds.5 mph34%29.98 "Hg19 mi
1:00 PM80 °FWarm.5 mph42%30.01 "Hg12 mi
12:00 PM75 °FMild.5 mph50%30.04 "Hg12 mi
11:00 AM71 °FScattered clouds.5 mph57%30.06 "Hg19 mi
10:00 AM67 °FMild.3 mph63%30.07 "Hg12 mi
9:00 AM63 °FMild.5 mph72%30.09 "Hg12 mi
8:00 AM60 °FScattered clouds.5 mph78%30.11 "Hg12 mi
7:00 AM60 °FCool.5 mph79%30.10 "Hg12 mi
6:00 AM60 °FCool.6 mph80%30.09 "Hg12 mi
5:00 AM61 °FClear.6 mph78%30.09 "Hg12 mi
4:00 AM62 °FCool.6 mph76%30.09 "Hg12 mi
3:00 AM64 °FMild.6 mph74%30.09 "Hg12 mi
2:00 AM65 °FPassing clouds.6 mph71%30.09 "Hg12 mi
1:00 AM69 °FMild.5 mph65%30.06 "Hg12 mi
Weather by CustomWeather, © 2016

See weather overviewHow to use our weather pages